Wind_Speed
14 15 13 12 11 8 4 7 3 5 8 7 5 10 12 10 11 12 13 13 13 13 14 13 13 13 13 12 12 12 10 10 11 11 11 10 10 11 12 12 13 14 15 15 15 14 14 13 13
13 13 9 10 11 7 6 9 5 3 4 7 4 6 10 7 10 11 10 10 9 10 11 11 11 10 11 11 10 11 11 11 11 11 9 7 7 8 9 11 13 14 14 14 14 13 12 11 12
10 10 7 6 8 5 9 7 8 4 4 7 4 3 5 3 6 6 6 6 6 6 7 8 8 8 9 9 9 10 10 11 11 10 7 7 7 8 9 10 12 15 16 15 15 14 12 10 10
9 11 9 6 8 6 7 7 1 3 1 3 6 5 3 2 2 1 1 2 3 4 5 6 6 7 7 7 7 8 8 9 9 9 8 7 9 11 12 11 13 15 16 17 16 16 14 12 10
6 13 14 10 6 5 2 6 2 4 4 7 8 8 6 6 8 5 3 2 2 1 2 3 5 5 6 6 6 6 7 8 8 9 10 11 11 13 14 13 13 16 17 18 18 17 16 14 12
6 12 17 12 9 6 5 3 3 5 4 7 10 10 9 9 11 10 8 7 6 5 4 4 4 3 3 2 2 3 4 5 7 9 10 10 9 10 11 11 12 15 17 17 17 16 14 14 13
9 10 15 13 11 6 4 7 11 13 10 9 9 13 11 8 10 11 10 9 8 8 8 7 6 5 5 3 3 4 2 2 5 7 7 7 7 6 8 10 11 12 14 16 17 18 16 14 13
12 11 15 17 19 12 5 9 16 15 14 13 12 17 16 12 9 10 11 8 8 10 10 10 9 9 8 7 6 6 3 1 3 7 8 8 6 5 9 12 11 11 13 14 16 17 17 16 15
13 13 17 21 21 21 14 15 21 16 15 16 16 19 18 16 11 11 12 9 10 11 11 12 13 11 9 8 8 8 6 7 7 9 11 12 9 7 10 13 13 13 14 14 16 16 16 16 17
16 17 21 23 23 22 23 20 24 20 12 13 17 20 18 15 12 10 12 11 11 12 13 14 14 12 11 10 10 11 11 12 14 15 15 14 12 11 12 14 16 17 17 17 18 20 18 16 18
21 20 25 27 27 24 22 21 23 22 14 13 15 18 19 15 15 14 11 12 13 14 14 14 15 15 15 15 15 14 15 16 18 18 16 13 11 11 15 19 19 21 22 20 20 22 23 19 17
24 25 27 28 28 25 23 24 24 26 21 19 17 20 22 18 15 16 16 14 15 14 13 13 14 14 14 15 16 16 15 17 17 16 14 12 12 14 19 22 24 26 25 24 24 25 25 23 20
25 26 29 30 29 25 24 26 27 29 28 25 22 19 22 23 22 21 21 17 13 12 13 12 12 12 12 12 14 14 15 16 14 14 14 14 14 17 21 24 25 26 26 25 26 28 26 24 22
31 32 31 31 28 25 24 25 29 29 31 31 31 25 21 27 28 20 22 22 19 18 20 19 16 16 16 17 17 16 16 16 16 15 15 15 16 18 21 23 26 27 25 26 26 25 23 23 22
35 35 34 33 31 29 29 28 29 29 31 33 33 31 31 43 39 29 25 32 36 29 26 25 20 18 17 18 20 22 21 21 20 18 18 19 20 21 24 26 29 30 29 28 27 22 23 24 22
33 34 32 29 30 28 32 31 30 32 32 33 34 36 41 45 40 36 34 36 40 38 35 30 25 22 21 21 23 25 25 26 25 23 23 24 25 26 28 29 33 34 34 34 31 28 28 26 23
28 28 26 27 28 26 29 30 30 35 37 38 40 42 45 44 38 32 34 35 36 40 39 32 29 28 28 28 28 26 27 29 30 29 29 29 30 32 35 35 36 37 38 37 35 33 31 29 25
21 22 26 27 26 24 26 27 32 36 34 37 40 42 44 44 39 36 34 37 36 37 37 31 34 35 33 33 31 30 31 33 34 34 33 33 33 34 36 38 40 41 40 37 35 35 32 29 27
23 25 27 26 27 25 26 26 32 33 32 39 40 40 42 42 40 38 39 40 40 42 43 38 39 39 38 37 34 34 37 38 39 39 38 37 37 38 40 42 44 46 45 39 36 36 35 30 29
25 25 25 24 23 25 25 26 25 29 33 40 43 46 49 49 47 44 43 44 42 50 48 37 36 39 40 39 35 36 42 42 43 43 43 43 41 41 43 47 47 48 49 46 41 38 37 34 32
29 28 28 27 23 27 29 28 25 28 37 43 47 50 52 51 47 45 46 47 40 36 33 36 41 44 41 39 39 41 44 44 45 45 45 43 41 41 43 45 46 46 48 49 48 45 41 40 39
32 32 32 32 28 30 33 34 33 35 42 47 50 51 51 48 44 43 43 45 43 41 40 41 45 48 50 47 44 44 44 45 44 43 42 41 42 44 45 45 45 45 46 48 50 50 46 44 42
31 35 37 36 34 34 38 42 40 41 44 48 51 49 48 48 48 45 40 39 41 37 38 39 38 40 44 43 42 40 39 40 40 40 41 42 43 43 44 44 45 44 45 46 48 48 46 43 41
21 25 28 29 30 33 36 43 48 46 49 51 54 53 53 52 49 45 43 47 45 39 34 34 30 32 35 36 37 37 37 38 38 38 40 42 43 43 43 44 45 44 44 44 45 45 45 41 38
12 16 20 21 23 27 29 36 41 42 45 46 47 48 50 50 51 53 54 53 50 44 33 31 28 31 33 35 36 37 37 37 37 39 41 43 44 44 44 45 44 43 43 41 41 41 39 34 34
16 18 21 23 25 24 24 30 34 38 42 42 43 46 50 51 53 53 46 39 40 43 37 30 28 31 32 34 36 38 39 40 40 41 43 45 46 46 46 44 42 40 38 34 34 33 30 27 28
15 18 19 23 26 29 30 32 38 42 44 44 46 49 53 56 59 58 51 38 25 32 37 29 28 34 35 36 35 38 40 42 42 44 46 47 47 46 44 42 39 37 33 31 31 27 23 23 23
11 11 13 18 26 31 34 35 36 36 42 47 50 53 57 59 60 59 56 51 43 30 23 20 26 35 37 44 47 48 46 45 45 45 44 42 40 40 39 37 36 33 30 31 29 25 27 23 22
17 17 19 22 29 37 43 43 40 41 45 51 55 58 59 59 60 59 58 51 40 32 30 25 26 29 31 32 36 42 42 41 40 40 39 36 34 34 35 35 34 33 31 30 26 20 22 20 19
23 24 26 30 36 43 47 43 42 43 44 46 48 55 53 50 39 34 37 35 33 30 31 26 24 29 30 30 31 33 34 35 35 35 35 35 33 32 33 33 34 33 31 27 22 20 18 18 17
Wind_Direction
141 135 138 142 137 126 84 170 155 111 94 83 55 66 88 89 86 86 89 92 94 94 92 88 87 89 88 85 75 65 58 53 48 46 52 51 57 55 49 35 24 26 27 22 23 30 35 35 33
155 156 148 136 151 129 71 179 177 125 121 112 112 88 94 92 85 89 88 94 98 100 101 99 96 91 86 78 74 65 52 45 41 39 48 51 48 41 31 24 16 13 14 12 11 12 20 28 29
177 169 149 128 153 157 93 141 183 163 189 127 151 155 111 82 83 95 102 104 99 103 106 109 106 100 95 87 77 66 54 47 43 44 52 43 26 11 1 358 360 359 358 1 4 3 4 10 18
193 182 182 161 127 141 118 116 163 153 216 196 204 214 177 205 254 157 109 65 67 96 120 124 117 110 102 91 77 67 53 44 40 38 40 29 13 360 358 355 352 353 350 351 353 354 354 350 356
186 189 195 208 168 134 163 129 195 49 337 271 249 243 235 237 258 259 273 301 318 358 159 157 139 128 116 101 82 65 51 39 38 35 34 29 19 12 10 5 351 344 343 344 345 347 345 343 343
186 195 209 216 225 213 273 312 294 276 252 260 265 262 251 248 260 269 271 279 288 286 259 226 202 190 163 117 56 8 21 35 41 37 40 40 42 41 33 20 360 338 328 327 330 336 336 334 337
202 218 222 228 246 252 252 253 270 259 239 248 274 275 266 255 260 269 273 284 286 283 276 266 257 260 259 252 275 295 314 86 51 26 23 26 23 20 17 6 1 344 325 318 318 321 324 321 323
207 219 216 225 239 245 261 264 260 259 245 243 260 272 275 273 270 273 274 284 288 287 284 274 262 263 265 272 279 269 240 234 351 345 344 342 340 330 335 335 335 333 329 323 317 312 312 309 305
207 215 211 224 239 251 241 251 275 278 271 260 258 265 269 271 275 280 280 282 282 284 289 283 272 273 276 278 277 266 263 274 294 312 320 326 327 324 334 327 324 325 322 320 315 311 308 304 298
218 214 212 230 245 255 262 270 281 286 285 266 256 262 264 265 261 266 284 286 284 285 284 284 276 275 277 276 274 275 281 286 293 302 307 305 303 315 338 335 331 333 328 325 316 307 302 297 292
230 219 218 228 242 256 266 273 280 280 272 275 270 262 264 262 259 254 266 277 277 275 275 274 270 271 273 274 274 275 280 287 290 295 303 301 298 312 330 331 335 336 332 332 326 312 302 297 287
234 229 233 236 243 254 265 269 272 280 279 273 278 275 276 267 262 261 255 256 258 256 250 252 259 262 269 274 277 277 284 291 294 297 304 300 302 318 323 327 330 331 329 327 328 323 308 295 284
238 235 234 237 243 250 259 267 267 273 280 283 278 281 287 271 261 262 267 262 252 252 251 256 278 277 272 277 284 293 296 295 303 307 307 305 313 318 318 318 321 323 325 321 319 318 311 301 288
242 242 242 245 249 250 254 259 264 267 272 278 282 281 285 276 278 275 266 262 259 257 258 261 271 276 281 290 296 296 293 297 301 299 294 300 305 304 302 308 315 320 321 320 317 317 318 304 291
247 248 250 255 262 263 258 257 262 265 268 271 275 274 267 266 270 263 264 268 267 259 253 255 261 273 281 285 288 289 291 291 294 295 295 303 307 305 306 309 314 316 315 315 313 308 316 312 291
243 247 250 253 257 260 262 259 261 265 263 264 265 264 260 266 282 278 279 283 264 254 248 245 253 265 274 277 279 283 287 291 293 292 291 298 305 306 306 307 311 312 310 309 307 304 301 307 290
247 250 250 248 247 246 255 258 255 260 264 266 265 265 268 276 283 274 277 284 273 260 247 241 249 257 263 269 275 281 286 289 292 294 295 298 302 303 304 305 307 309 310 308 305 301 299 298 294
240 241 242 243 241 243 249 257 253 254 263 268 270 272 273 275 277 270 271 268 270 253 243 252 252 253 258 266 274 284 286 286 288 289 290 293 294 295 297 300 304 306 307 304 300 299 297 295 291
239 239 241 242 239 243 250 254 261 261 265 270 272 273 275 279 276 269 270 272 268 262 254 259 259 253 255 264 271 279 281 283 285 287 288 288 289 291 293 295 298 300 301 300 295 293 293 293 289
247 250 253 250 245 247 248 251 258 266 267 270 273 275 280 283 286 283 278 274 271 269 254 253 252 251 256 262 266 276 279 280 282 285 287 287 288 288 289 291 293 294 295 294 292 290 286 286 285
252 251 254 256 243 244 249 244 248 254 259 260 263 269 279 287 294 288 279 276 274 274 266 256 259 261 261 264 270 271 273 278 282 284 284 285 285 285 286 287 289 290 290 290 291 291 286 282 281
256 257 254 253 245 235 246 245 241 240 249 257 265 270 276 282 284 281 278 272 271 274 284 273 258 256 259 260 264 267 271 276 278 280 281 283 285 287 289 290 290 289 288 288 288 288 285 281 278
263 264 264 264 258 246 240 249 252 250 257 265 270 275 275 276 276 274 267 263 263 264 271 272 269 263 264 264 265 266 267 271 275 278 281 284 286 287 289 290 290 289 286 284 283 283 281 278 274
270 272 278 279 276 269 257 253 258 259 261 266 271 274 276 277 275 270 265 269 268 264 261 267 265 259 257 261 265 269 271 272 275 279 282 284 286 288 290 291 290 289 288 286 284 281 281 279 273
287 287 284 278 276 276 271 266 265 263 260 259 262 267 270 271 270 272 277 275 261 251 250 262 273 266 262 265 269 270 272 275 279 281 282 284 285 288 289 289 289 288 289 289 288 287 288 284 275
285 293 290 289 286 276 273 270 270 270 272 271 267 265 266 266 271 276 280 273 247 248 248 259 264 260 262 269 272 271 271 273 276 279 283 286 288 290 290 290 289 291 293 295 294 290 286 284 279
279 286 286 288 294 294 288 278 276 275 272 274 272 269 267 265 267 270 276 275 272 250 245 245 251 255 261 269 270 269 268 270 273 278 283 287 288 288 288 287 289 292 297 298 304 292 286 291 280
293 292 296 303 306 308 305 299 293 285 270 268 271 270 267 267 267 268 271 272 277 282 247 264 255 245 265 273 266 267 269 271 274 279 282 283 284 283 283 284 286 291 299 307 312 303 288 284 270
311 311 308 310 313 313 310 307 310 295 278 271 269 265 265 265 268 270 270 275 272 262 266 279 261 252 271 277 266 262 266 270 275 279 280 279 277 278 281 284 288 292 296 302 305 306 295 291 290
314 314 310 314 317 318 315 319 316 305 289 280 277 270 267 270 278 273 267 272 271 262 265 259 255 274 277 274 269 267 268 271 274 277 278 276 273 276 279 283 288 292 294 293 291 293 294 296 301
Height
5926 5927 5927 5930 5932 5931 5931 5932 5932 5934 5934 5932 5933 5933 5933 5932 5931 5933 5930 5929 5929 5928 5927 5928 5929 5929 5929 5929 5929 5930 5929 5928 5927 5927 5926 5926 5925 5924 5923 5921 5920 5918 5917 5915 5914 5913 5912 5911 5910
5927 5928 5928 5930 5930 5929 5929 5929 5934 5937 5937 5934 5935 5936 5936 5933 5933 5932 5931 5932 5931 5930 5929 5930 5930 5931 5931 5931 5931 5931 5932 5931 5929 5929 5928 5927 5927 5925 5924 5923 5922 5920 5918 5917 5915 5914 5913 5911 5910
5928 5928 5928 5928 5928 5928 5930 5931 5935 5937 5939 5935 5936 5937 5937 5935 5935 5934 5934 5932 5931 5931 5931 5931 5931 5932 5932 5933 5933 5934 5933 5932 5931 5930 5929 5929 5928 5927 5926 5925 5923 5922 5920 5917 5916 5915 5914 5912 5910
5928 5929 5928 5927 5927 5927 5928 5930 5932 5933 5934 5935 5937 5937 5937 5936 5935 5935 5934 5933 5932 5932 5932 5932 5932 5933 5933 5934 5935 5935 5934 5933 5932 5931 5930 5929 5929 5928 5927 5926 5925 5923 5921 5919 5917 5916 5914 5912 5910
5927 5928 5927 5925 5928 5927 5928 5930 5931 5932 5934 5935 5936 5936 5937 5937 5935 5935 5935 5934 5934 5934 5934 5934 5933 5933 5934 5935 5935 5935 5934 5934 5933 5932 5930 5929 5929 5928 5928 5927 5925 5923 5921 5920 5918 5916 5914 5912 5910
5927 5926 5926 5926 5926 5925 5924 5924 5929 5932 5934 5935 5935 5935 5936 5937 5935 5934 5935 5935 5935 5934 5934 5934 5934 5934 5934 5935 5935 5934 5934 5933 5932 5932 5930 5928 5927 5926 5926 5925 5924 5922 5920 5919 5917 5915 5913 5911 5910
5927 5927 5927 5925 5923 5923 5925 5925 5926 5928 5932 5933 5934 5933 5933 5936 5935 5934 5934 5934 5934 5934 5934 5934 5935 5935 5935 5935 5934 5933 5932 5932 5931 5931 5930 5928 5926 5925 5924 5923 5922 5920 5918 5917 5915 5914 5912 5910 5909
5925 5927 5926 5923 5922 5924 5926 5924 5922 5925 5927 5931 5932 5931 5931 5933 5934 5932 5932 5933 5933 5934 5934 5934 5934 5934 5933 5933 5932 5931 5930 5930 5929 5929 5928 5927 5925 5923 5921 5921 5919 5918 5916 5914 5913 5911 5910 5909 5907
5923 5926 5924 5921 5921 5921 5923 5923 5919 5921 5924 5927 5927 5928 5929 5930 5932 5930 5930 5932 5932 5933 5934 5933 5933 5932 5932 5931 5931 5930 5929 5928 5926 5926 5925 5925 5923 5921 5919 5918 5917 5915 5913 5911 5909 5907 5906 5906 5904
5921 5923 5921 5920 5919 5919 5920 5921 5917 5918 5921 5923 5924 5924 5925 5927 5930 5930 5928 5930 5931 5932 5932 5932 5932 5931 5930 5929 5928 5928 5926 5925 5924 5922 5922 5921 5920 5918 5916 5915 5915 5912 5910 5909 5908 5905 5902 5902 5900
5916 5919 5916 5916 5916 5916 5918 5918 5915 5915 5919 5921 5920 5920 5921 5924 5926 5929 5928 5927 5928 5930 5930 5930 5929 5928 5928 5927 5926 5925 5923 5922 5921 5920 5919 5918 5917 5914 5912 5911 5911 5909 5907 5905 5904 5902 5899 5898 5896
5910 5913 5912 5913 5913 5914 5915 5915 5913 5911 5914 5917 5918 5918 5919 5921 5923 5924 5925 5923 5922 5923 5924 5925 5925 5924 5923 5923 5922 5921 5919 5919 5918 5917 5916 5916 5914 5911 5909 5907 5906 5904 5902 5901 5899 5897 5895 5894 5892
5905 5907 5906 5907 5909 5912 5912 5912 5910 5909 5909 5911 5914 5916 5916 5918 5917 5918 5922 5922 5923 5922 5922 5922 5923 5922 5920 5919 5918 5917 5916 5915 5914 5914 5913 5913 5911 5909 5907 5905 5904 5901 5899 5897 5895 5892 5891 5890 5888
5899 5899 5900 5900 5904 5907 5908 5909 5906 5905 5905 5906 5908 5911 5912 5910 5913 5914 5916 5918 5919 5919 5919 5917 5917 5917 5915 5914 5913 5913 5912 5911 5910 5911 5911 5909 5908 5906 5905 5904 5900 5897 5895 5893 5891 5888 5886 5885 5884
5891 5894 5897 5898 5901 5902 5902 5905 5902 5900 5900 5900 5901 5904 5905 5904 5907 5911 5912 5913 5913 5913 5914 5912 5911 5910 5910 5909 5907 5907 5907 5907 5906 5906 5906 5904 5902 5901 5899 5897 5896 5894 5891 5889 5887 5886 5884 5882 5880
5884 5887 5892 5895 5895 5894 5894 5897 5898 5894 5894 5895 5896 5897 5897 5898 5899 5904 5906 5908 5905 5905 5905 5904 5903 5905 5905 5903 5901 5899 5899 5899 5898 5897 5898 5899 5897 5895 5893 5891 5889 5888 5886 5884 5882 5880 5879 5878 5876
5879 5883 5884 5885 5886 5886 5885 5887 5892 5887 5886 5886 5888 5889 5888 5887 5891 5897 5901 5901 5898 5898 5896 5893 5895 5897 5897 5897 5895 5893 5893 5893 5891 5890 5890 5890 5889 5888 5886 5884 5883 5881 5879 5877 5875 5874 5873 5872 5870
5873 5875 5876 5878 5879 5878 5879 5880 5883 5882 5879 5878 5878 5878 5878 5878 5883 5889 5893 5893 5891 5890 5890 5885 5886 5887 5888 5888 5888 5887 5886 5885 5885 5885 5884 5884 5883 5881 5879 5877 5874 5873 5871 5869 5868 5866 5865 5864 5863
5867 5868 5870 5874 5874 5874 5874 5874 5876 5876 5875 5874 5874 5875 5876 5877 5879 5881 5883 5882 5881 5883 5881 5879 5877 5879 5879 5880 5880 5880 5879 5878 5878 5879 5877 5877 5876 5874 5872 5870 5867 5865 5863 5862 5860 5859 5858 5857 5856
5864 5865 5866 5868 5869 5869 5868 5868 5869 5871 5871 5871 5871 5871 5871 5870 5869 5869 5869 5869 5869 5868 5865 5866 5870 5870 5870 5869 5869 5872 5872 5871 5870 5870 5869 5868 5867 5866 5864 5863 5860 5857 5854 5852 5851 5851 5851 5849 5847
5859 5860 5861 5863 5866 5864 5864 5866 5867 5866 5864 5863 5864 5865 5862 5860 5858 5854 5852 5849 5850 5853 5854 5857 5857 5857 5859 5859 5861 5864 5864 5864 5863 5863 5861 5860 5858 5857 5855 5854 5852 5849 5846 5843 5840 5840 5841 5840 5838
5853 5853 5854 5855 5859 5860 5860 5860 5863 5861 5859 5857 5856 5856 5853 5850 5847 5842 5839 5835 5835 5837 5840 5842 5844 5847 5849 5852 5853 5852 5854 5854 5854 5853 5852 5851 5849 5847 5845 5844 5842 5840 5837 5834 5830 5828 5828 5829 5828
5847 5847 5847 5849 5851 5853 5854 5851 5853 5855 5855 5852 5847 5845 5842 5841 5839 5835 5834 5831 5827 5828 5832 5833 5836 5840 5842 5843 5843 5843 5843 5843 5843 5843 5843 5842 5840 5838 5836 5834 5832 5829 5827 5824 5822 5819 5817 5817 5817
5840 5840 5840 5842 5843 5845 5847 5845 5843 5845 5844 5842 5839 5835 5831 5829 5828 5825 5824 5822 5822 5820 5822 5825 5826 5829 5832 5832 5832 5832 5833 5833 5833 5833 5833 5833 5831 5829 5827 5824 5821 5818 5816 5814 5811 5809 5806 5805 5806
5835 5835 5835 5833 5833 5834 5836 5835 5834 5832 5830 5829 5827 5824 5820 5819 5816 5814 5815 5811 5809 5810 5810 5814 5815 5818 5820 5822 5823 5823 5823 5823 5823 5823 5823 5822 5820 5819 5817 5814 5811 5808 5806 5804 5802 5799 5797 5796 5795
5831 5831 5830 5828 5826 5827 5828 5824 5823 5821 5818 5818 5818 5816 5811 5808 5803 5803 5805 5801 5794 5797 5798 5802 5805 5808 5811 5812 5812 5813 5814 5814 5813 5813 5812 5811 5809 5807 5806 5803 5800 5798 5797 5795 5793 5791 5789 5786 5784
5828 5826 5825 5822 5820 5820 5821 5821 5818 5814 5810 5807 5805 5804 5802 5798 5796 5793 5794 5792 5788 5788 5786 5788 5793 5798 5800 5802 5803 5804 5804 5804 5803 5802 5801 5799 5797 5797 5795 5792 5790 5789 5788 5787 5785 5783 5782 5779 5776
5826 5823 5821 5818 5813 5811 5810 5806 5804 5802 5799 5795 5791 5788 5787 5787 5784 5782 5781 5782 5782 5780 5780 5781 5781 5787 5792 5792 5792 5793 5794 5794 5793 5792 5790 5788 5787 5786 5785 5783 5781 5780 5781 5780 5778 5775 5772 5771 5770
5818 5818 5815 5812 5808 5803 5797 5796 5793 5787 5782 5778 5774 5772 5770 5769 5771 5772 5773 5769 5769 5770 5772 5773 5775 5780 5782 5779 5778 5781 5783 5782 5781 5781 5780 5778 5778 5778 5777 5775 5774 5774 5774 5773 5772 5770 5767 5765 5764
5813 5812 5808 5805 5800 5794 5787 5787 5778 5770 5764 5761 5759 5756 5755 5755 5758 5758 5758 5756 5756 5760 5763 5764 5768 5770 5768 5768 5769 5771 5771 5771 5771 5771 5770 5770 5770 5769 5769 5768 5767 5768 5768 5767 5766 5765 5763 5761 5759